www.pogodaiklimat.ru

Погода и климат >> Архив погоды >> Бангладеш >> Sitakundu


ПОГОДА в Sitakundu

  • Прогноз погоды в Sitakundu
  • Монитор погоды в Sitakundu
  • Климат города

АРХИВ ПОГОДЫ в Sitakundu

Время (UTC), дата Ветер
(напр.,м/с)
 
Видим.   Явления Облачность Т
(С)
Тd
(С)
f
(%)
Тe
(С)
Тes
(С)
Комфортность P
(гПа)
Po
(гПа)
Тmin
(С)
Tmax
(С)
R
(мм)
R24
(мм)
S
(см)
03 14.05 штиль 0 5000 м мгла {туман} 8/4 300 м
[St As trans]
+28.0 +22.0 70 +36 +43 очень
душно
1006.4 1005.5 +23.5
06 14.05 ЮЗ 1 8000 м 8/3 540 м
[Sc diur, vesp Ac trans]
+31.5 +25.0 68 +45 +55 опасность
перегрева
1009.6 1008.8
09 14.05 ЮВ 1 8000 м 3/3 300 м
[Sc diur, vesp]
+31.0 +25.0 70 +44 +54 опасность
перегрева
1007.7 1006.8
12 14.05 ЮВ 1 8000 м 4/0
[Cc]
+28.5 +26.0 86 +43 +43 опасность
перегрева
1007.3 1006.5 +32.1
15 14.05 ЮЗ 1 6000 м 4/0 480 м
[Cc]
+27.5 +26.0 92 +41 +41 опасность
перегрева
1008.2 1007.3
18 14.05 штиль 0 5000 м мгла {туман} 8/3 540 м
[Sc diur, vesp Ac trans]
+26.0 +25.0 94 +37 +37 очень
душно
1007.9 1007.0
00 15.05 штиль 0 4000 м мгла {туман} ясно +25.5 +25.0 97 +36 +37 очень
душно
1007.7 1006.9
03 15.05 штиль 0 5000 м мгла {туман} ясно +29.0 +26.0 84 +44 +61 опасность
перегрева
1008.9 1008.1 +24.5
06 15.05 ЮЗ 1 8000 м 3/3 540 м
[Sc diur, vesp Ac trans]
+31.0 +24.0 66 +43 +61 опасность
перегрева
1008.2 1007.4
09 15.05 ЮЗ 1 8000 м 3/3 300 м
[Sc diur, vesp]
+31.5 +26.0 73 +47 +57 опасность
перегрева
1006.2 1005.4
12 15.05 штиль 0 8000 м ясно +28.5 +26.0 86 +43 +43 опасность
перегрева
1005.6 1004.7 +32.5
15 15.05 штиль 0 6000 м мгла {туман} ясно +26.0 +25.0 94 +37 +37 очень
душно
1006.7 1005.8
03 16.05 штиль 0 6000 м гроза с градом {дождь} 10/4 300 м
[Cb calv As op]
+22.5 +22.0 97 +30 +32 очень
душно
1009.9 1009.0 +22.0
06 16.05 ЮВ 2 6000 м гроза с градом {дождь} 10/4 300 м
[Cb calv As op]
+23.5 +23.0 97 +31 +34 очень
душно
1009.2 1008.3 17
09 16.05 ЮЗ 1 7000 м 8/0
[Cc]
+29.5 +22.0 64 +38 +50 очень
душно
1005.8 1004.9
12 16.05 ЮЗ 1 7000 м 9/4 300 м
[St As trans]
+26.0 +21.0 74 +33 +33 очень
душно
1005.7 1004.8 +30.0
15 16.05 штиль 0 5000 м мгла {туман} 8/4 300 м
[St As trans]
+25.0 +24.0 94 +34 +34 очень
душно
1005.8 1005.1
18 16.05 штиль 0 5000 м мгла {туман} ясно +24.5 +24.0 97 +34 +34 очень
душно
1005.5 1004.6
00 17.05 ЮЗ 3 6000 м 8/4 300 м
[St As trans]
+24.0 +23.0 94 +32 +32 очень
душно
1007.3 1006.4
03 17.05 ЮЗ 1 7000 м 8/3 540 м
[Sc diur, vesp Ac trans]
+28.0 +21.0 66 +35 +41 очень
душно
1007.2 1006.3 +23.5
09 17.05 ЮЗ 1 7000 м 8/3 540 м
[Sc diur, vesp Ac trans]
+29.5 +25.0 77 +43 +48 опасность
перегрева
1005.1 1004.2
12 17.05 штиль 0 8000 м ясно +27.5 +25.0 86 +39 +40 очень
душно
1004.2 1003.3 +30.3
15 17.05 штиль 0 6000 м мгла {туман} ясно +26.0 +25.0 94 +37 +37 очень
душно
1005.2 1004.3
18 17.05 штиль 0 5000 м мгла {туман} ясно +25.5 +25.0 97 +36 +36 очень
душно
1005.8 1004.9
00 18.05 штиль 0 5000 м гроза с градом {дождь} ясно +24.5 +24.0 97 +34 +34 очень
душно
1005.1 1004.2 16
03 18.05 ЮВ 3 5000 м мгла 5/3 540 м
[Sc diur, vesp Ci fib]
+28.0 +21.0 66 +35 +42 очень
душно
1006.7 1005.8 +24.0
06 18.05 С 3 5000 м мгла 10/5 300 м
[St As op]
+29.2 +24.0 74 +41 +41 опасность
перегрева
1006.0 1005.1
09 18.05 З 1 6000 м сильная гроза, ливневой дождь 10/4 300 м
[Cb calv As op]
+26.2 +22.0 78 +34 +36 очень
душно
1004.7 1003.9
12 18.05 Ю 1 5000 м слабый дождь {гроза} 10/5 300 м
[Frnb As op]
+23.7 +23.7 100 +32 +32 очень
душно
1004.0 1003.2 +30.1 22
15 18.05 штиль 0 5000 м мгла {туман} 10/5 300 м
[St As op]
+23.5 +23.0 97 +31 +31 очень
душно
1004.4 1003.6
18 18.05 штиль 0 5000 м мгла {туман} 10/5 300 м
[St As op]
+23.5 +23.0 97 +31 +31 очень
душно
1005.9 1005.0

 

Местоположение метеостанции Sitakundu (Бангладеш): широта 22.58 долгота 91.70 высота над уровнем моря 44 м.

В архиве по умолчанию представлена погода в Sitakundu за последнюю неделю. Архивные данные за месяц целиком и за предыдущие месяцы, начиная с января 2011 года, Вы можете получить, выбрав интересующий диапазон дат из раскрывающегося списка и нажав кнопку "Ввод!".


*Определитесь, кто Вы:
робот инопланетянин человек

Внимание! Время в таблицах - всемирное. Для получения местного времени необходимо прибавить поправку, которая в Sitakundu равна 6.5 ч.

Смотрите также архив погоды в соседних городах и на ближайших метеорологических станциях:

Погода в Sandwip (Бангладеш) (30 км)
Погода в Chittagong (Бангладеш) (37 км)
Погода в Rangamati (Бангладеш) (52 км)
Погода в Feni (Бангладеш) (58 км)
Погода в Hatia (Бангладеш) (64 км)
Погода в Maijdicourt (Бангладеш) (69 км)
Погода в Kutubdia (Бангладеш) (86 км)
Погода в Bhola (Бангладеш) (108 км)
Погода в Comilla (Бангладеш) (109 км)
Погода в Chandpur (Бангладеш) (128 км)

Пояснения к столбцам:

Ветер - указаны скорость ветра в м/с - средняя за 10 мин, порывы в срок и между сроками (в фигурных скобках) и направление, откуда дует ветер: С - северный, СВ - северо-восточный, В - восточный, ЮВ - юго-восточный, Ю - южный, ЮЗ - юго-западный, З - западный, СЗ - северо-западный.
Видимость - горизонтальная дальность видимости в метрах или километрах. При видимости от 1 до 10 км при отсутствии осадков обычно наблюдается дымка, при ухудшении видимости до 1 км и менее - туман. В сухую погоду видимость может ухудшаться дымом, пылью или мглою.
Явления - указаны атмосферные явления, наблюдавшиеся в срок или в последний час перед сроком; фигурными скобками обозначены явления, наблюдавшиеся между сроками (за 1-3 часа до срока); квадратными скобками обозначены град или гололедные отложения с указанием их диаметра в мм.
Облачность - указаны через наклонную черту общая и нижняя облачность в баллах и высота нижней границы облаков в метрах; квадратными скобками обозначены формы облаков: Ci - перистые, Cs - перисто-слоистые, Cc - перисто-кучевые, Ac - высококучевые, As - высокослоистые, Sc - слоисто-кучевые, Ns - слоисто-дождевые, Cu - кучевые, Cb - кучево-дождевые. Подробнее классификацию облаков см. в Атласе облаков (PDF).
T - Температура воздуха - температура, измеренная на высоте 2 м над землей.
Td - Температура точки росы - температура, при понижении до которой содержащийся в воздухе водяной пар достигнет насыщения.
f - Относительная влажность воздуха - влажноcть воздуха, измеренная на высоте 2 м над землей.
Te - Эффективная температура - температура, которую ощущает одетый по сезону человек в тени. Характеристика душности погоды. При расчете учитывается влияние влажности воздуха и скорости ветра на теплоощущения человека.
Tes - Эффективная температура на солнце - температура, которую ощущает человек, с поправкой на солнечный нагрев. Характеристика знойности погоды. Зависит от высоты солнца над горизонтом, облачности и скорости ветра. Ночью, в пасмурную погоду, а также при ветре 12 м/с и более поправка равна нулю.
P - Атмосферное давление - приведенное к уровню моря атмосферное давление.
Po - Атмосферное давление - измеренное на уровне метеостанции атмосферное давление.
Tmin - Минимальная температура - минимум температуры воздуха на высоте 2 м над землей.
Tmax - Максимальная температура - максимум температуры воздуха на высоте 2 м над землей.
R - Количество осадков - Количество выпавших осадков за период времени, мм. При наведении курсора мыши на число - период времени, за который выпало указанное количество осадков.
R24 - Количество осадков - Количество выпавших осадков за 24 часа, мм.
S - Снежный покров - Высота снежного покрова, см. При наведении курсора мыши на число - состояние снежного покрова и степень покрытия местности в баллах.